Location: ActonStarParty
(42.4766°N, 71.4538°W)
Time: 06:41:24
(UTC-04:00)

USA 234 - Pass Details

Date: 19 April 2018
Orbit: 1102 x 1105 km, 123.0° (Epoch: 17 September)

Event Time Altitude Azimuth Distance (km) Brightness Sun altitude
Exits shadow 23:28:03 77° 354° (N) 1,136 3.3 -33.2°
Drops below altitude 10° 23:34:13 10° 313° (NW) 2,970 6.2 -33.7°
Sets 23:36:42 0° 313° (NW) 3,931 7.0 -33.8°
